Campo, CA

11:10 PM PST on January 19, 2017 (GMT -0800)
Campo

Weather History for KCZZ - April, 2013

Change the Weather History Date:

Friday, April 5, 2013

  Actual Average Record
Temperature  
Mean Temperature 56 °F 53 °F  
Max Temperature 69 °F 70 °F 90 °F (1989)
Min Temperature 42 °F 37 °F 21 °F (1955)
Degree Days  
Heating Degree Days 9 12  
Month to date heating degree days 46 60  
Since 1 July heating degree days 2562 2528  
Cooling Degree Days 0 0  
Month to date cooling degree days 0 0  
Year to date cooling degree days 0 0  
Growing Degree Days 7 (Base 50)    
Moisture  
Dew Point 46 °F    
Average Humidity 71    
Maximum Humidity 100    
Minimum Humidity 42    
Precipitation  
Precipitation 0.00 in 0.04 in 1.49 in (2006)
Month to date precipitation 0.00 0.23  
Year to date precipitation 4.44 9.13  
Since 1 July precipitation 8.91  
Snow  
Snow 0.00 in - - ()
Month to date snowfall 0.0  
Year to date snowfall 0.0  
Snow Depth 0.00 in    
Sea Level Pressure  
Sea Level Pressure 29.97 in    
Wind  
Wind Speed 8 mph (WSW)    
Max Wind Speed 22 mph    
Max Gust Speed 24 mph    
T = Trace of Precipitation, MM = Missing Value Source: NWS Daily Summary

Daily Weather History Graph

Daily Weather History Graph

Search for Another Location

Airport or City:

Trip Planner

Search our weather history database for the weather conditions in past years. The results will help you decide how hot, cold, wet, or windy it might be!

Date:

Astronomy

Apr. 05, 2013 Rise Set
Actual Time 6:28 AM PDT 7:08 PM PDT
Civil Twilight 6:03 AM PDT 7:33 PM PDT
Nautical Twilight 5:34 AM PDT 8:03 PM PDT
Astronomical Twilight 5:04 AM PDT 8:33 PM PDT
Moon 3:23 AM PDT (4/5) 2:51 PM PDT (4/5)
Length of Visible Light 13h 30m
Length of Day
12h 40m
Waning Crescent, 22% of the Moon is Illuminated
Apr 5
Waning Crescent
Apr 10
New
Apr 18
First Quarter
Apr 25
Full
May 2
Last Quarter

Hourly Weather History & Observations

Time (PDT) Temp. Dew Point Humidity Pressure Visibility Wind Dir Wind Speed Gust Speed Precip Events Conditions
12:52 AM 52.0 °F 46.9 °F 83% 29.99 in - WSW 6.9 mph - N/A   Unknown
1:52 AM 50.0 °F 45.0 °F 83% 29.99 in - WSW 4.6 mph - N/A   Unknown
2:52 AM 48.9 °F 45.0 °F 86% 29.99 in - WSW 5.8 mph - N/A   Unknown
3:52 AM 50.0 °F 45.0 °F 83% 29.97 in - West 5.8 mph - N/A   Unknown
4:52 AM 48.0 °F 45.0 °F 89% 29.96 in - West 6.9 mph - N/A   Unknown
5:52 AM 46.9 °F 44.1 °F 90% 29.96 in - Calm Calm - N/A   Unknown
6:52 AM 46.0 °F 44.1 °F 93% 29.99 in - Calm Calm - N/A   Unknown
7:52 AM 46.9 °F 46.0 °F 97% 30.00 in - Calm Calm - N/A   Unknown
8:52 AM 50.0 °F 48.0 °F 93% 30.01 in - South 8.1 mph - N/A   Unknown
9:52 AM 55.0 °F 48.0 °F 77% 30.01 in - Calm Calm - N/A   Unknown
10:52 AM 62.1 °F 46.9 °F 58% 30.00 in - SW 10.4 mph - N/A   Unknown
11:52 AM 64.0 °F 46.0 °F 52% 29.99 in - SSW 16.1 mph 21.9 mph N/A   Unknown
12:52 PM 66.0 °F 44.1 °F 45% 29.97 in - WSW 10.4 mph 19.6 mph N/A   Unknown
1:52 PM 66.9 °F 45.0 °F 45% 29.95 in - SW 15.0 mph 18.4 mph N/A   Unknown
2:52 PM 68.0 °F 45.0 °F 43% 29.94 in - West 11.5 mph 18.4 mph N/A   Unknown
3:52 PM 68.0 °F 44.1 °F 42% 29.92 in - SW 13.8 mph 21.9 mph N/A   Unknown
4:52 PM 64.9 °F 46.0 °F 50% 29.92 in - WSW 17.3 mph - N/A   Unknown
5:52 PM 63.0 °F 46.9 °F 56% 29.94 in - West 17.3 mph - N/A   Unknown
6:52 PM 57.9 °F 48.9 °F 72% 29.94 in - SW 10.4 mph - N/A   Unknown
7:52 PM 54.0 °F 48.9 °F 83% 29.96 in - WSW 11.5 mph - N/A   Unknown
8:52 PM 52.0 °F 48.9 °F 89% 29.98 in - WSW 10.4 mph - N/A   Unknown
9:52 PM 48.9 °F 46.0 °F 90% 29.99 in - Calm Calm - N/A   Unknown
10:52 PM 50.0 °F 46.9 °F 89% 29.99 in - Calm Calm - N/A   Unknown
11:52 PM 50.0 °F 48.0 °F 93% 29.97 in - SSW 6.9 mph - N/A   Unknown